Location: ????????
(55.8351°N, 38.7040°E)
Time: 12:58:16
(UTC+00:00)

USA 229 DEB - Pass Details

Date: 14 April 2024
Orbit: 892 x 1319 km, 63.4° (Epoch: 18 May)

Event Time Altitude Azimuth Distance (km) Brightness Sun altitude
Rises 01:34:34 0° 302° (WNW) 3,835 6.3 -6.9°
Reaches altitude 10° 01:37:08 10° 305° (NW) 2,938 5.8 -6.6°
Maximum altitude 01:44:09 66° 28° (NNE) 1,272 4.4 -5.7°
Drops below altitude 10° 01:51:55 10° 111° (ESE) 3,232 6.9 -4.7°
Sets 01:54:51 0° 114° (ESE) 4,240 7.5 -4.4°
